3 Gehege Außen am Haus Messungen

Zurück zum Überblick

Zeitpunkt Temperatur Luftfeuchte
15.10.2019 12:11:37 24,7 C 59,0%
15.10.2019 12:04:34 24,6 C 59,0%
15.10.2019 11:57:32 24,5 C 59,0%
15.10.2019 11:50:30 24,3 C 59,0%
15.10.2019 11:43:28 24,3 C 59,0%
15.10.2019 11:36:26 24,2 C 60,0%
15.10.2019 11:29:25 24,1 C 60,0%
15.10.2019 11:22:24 24,0 C 60,0%
15.10.2019 11:15:23 24,0 C 60,0%
15.10.2019 11:08:22 23,9 C 60,0%
15.10.2019 11:01:19 23,7 C 60,0%
15.10.2019 10:54:17 23,6 C 60,0%
15.10.2019 10:47:14 23,5 C 61,0%
15.10.2019 10:40:11 23,4 C 61,0%
15.10.2019 10:33:11 23,3 C 61,0%
15.10.2019 10:26:09 23,2 C 61,0%
15.10.2019 10:19:07 23,1 C 61,0%
15.10.2019 10:12:07 23,0 C 61,0%
15.10.2019 10:05:04 22,9 C 61,0%
15.10.2019 09:58:02 22,8 C 62,0%
15.10.2019 09:51:00 22,7 C 62,0%
15.10.2019 09:43:57 22,6 C 62,0%
15.10.2019 09:36:54 22,5 C 62,0%
15.10.2019 09:29:47 22,3 C 62,0%
15.10.2019 09:22:49 22,2 C 62,0%
15.10.2019 09:15:49 22,1 C 62,0%
15.10.2019 09:08:48 22,0 C 62,0%
15.10.2019 09:01:47 21,9 C 62,0%
15.10.2019 08:54:43 21,8 C 62,0%
15.10.2019 08:47:41 21,7 C 62,0%
15.10.2019 08:40:39 21,5 C 62,0%
15.10.2019 08:33:36 21,4 C 62,0%
15.10.2019 08:26:35 21,3 C 62,0%
15.10.2019 08:19:31 21,3 C 62,0%
15.10.2019 08:12:30 21,3 C 62,0%
15.10.2019 08:05:29 21,2 C 63,0%
15.10.2019 07:58:26 21,2 C 62,0%
15.10.2019 07:51:23 21,1 C 62,0%
15.10.2019 07:44:19 21,1 C 62,0%
15.10.2019 07:37:18 21,1 C 62,0%
15.10.2019 07:30:17 21,1 C 62,0%
15.10.2019 07:23:15 21,1 C 62,0%
15.10.2019 07:16:12 21,1 C 62,0%
15.10.2019 07:09:11 21,2 C 62,0%
15.10.2019 07:02:07 21,2 C 62,0%
15.10.2019 06:55:06 21,2 C 62,0%
15.10.2019 06:48:05 21,2 C 62,0%
15.10.2019 06:41:04 21,3 C 62,0%
15.10.2019 06:34:04 21,3 C 62,0%
15.10.2019 06:27:01 21,4 C 62,0%
15.10.2019 06:19:59 21,4 C 62,0%
15.10.2019 06:12:58 21,4 C 62,0%
15.10.2019 06:05:54 21,4 C 62,0%
15.10.2019 05:58:52 21,4 C 61,0%
15.10.2019 05:51:51 21,5 C 62,0%
15.10.2019 05:44:48 21,5 C 62,0%
15.10.2019 05:37:45 21,5 C 62,0%
15.10.2019 05:30:43 21,6 C 62,0%
15.10.2019 05:23:41 21,6 C 62,0%
15.10.2019 05:16:38 21,6 C 62,0%
15.10.2019 05:09:35 21,6 C 61,0%
15.10.2019 05:02:32 21,7 C 61,0%
15.10.2019 04:55:31 21,7 C 61,0%
15.10.2019 04:48:30 21,7 C 62,0%
15.10.2019 04:41:27 21,7 C 61,0%
15.10.2019 04:34:25 21,8 C 62,0%
15.10.2019 04:27:21 21,8 C 62,0%
15.10.2019 04:20:18 21,8 C 61,0%
15.10.2019 04:13:15 21,8 C 62,0%
15.10.2019 04:06:12 21,8 C 62,0%
15.10.2019 03:59:09 21,9 C 61,0%
15.10.2019 03:52:08 21,9 C 62,0%
15.10.2019 03:45:06 21,9 C 62,0%
15.10.2019 03:38:05 21,9 C 61,0%
15.10.2019 03:31:03 21,9 C 61,0%
15.10.2019 03:24:01 22,0 C 61,0%
15.10.2019 03:17:00 22,0 C 61,0%
15.10.2019 03:09:58 22,0 C 61,0%
15.10.2019 03:02:56 22,0 C 61,0%
15.10.2019 02:55:54 22,0 C 61,0%
15.10.2019 02:48:53 22,0 C 61,0%
15.10.2019 02:41:51 22,0 C 61,0%
15.10.2019 02:34:50 22,0 C 61,0%
15.10.2019 02:27:48 22,1 C 61,0%
15.10.2019 02:20:45 22,0 C 61,0%
15.10.2019 02:13:42 22,1 C 61,0%
15.10.2019 02:06:39 22,1 C 61,0%
15.10.2019 01:59:38 22,1 C 61,0%
15.10.2019 01:52:37 22,1 C 61,0%
15.10.2019 01:45:34 22,1 C 61,0%
15.10.2019 01:38:32 22,2 C 61,0%
15.10.2019 01:31:31 22,2 C 61,0%
15.10.2019 01:24:29 22,2 C 61,0%
15.10.2019 01:17:26 22,2 C 61,0%
15.10.2019 01:10:23 22,2 C 61,0%
15.10.2019 01:03:21 22,2 C 61,0%
15.10.2019 00:56:21 22,2 C 61,0%
15.10.2019 00:49:17 22,2 C 61,0%
15.10.2019 00:42:14 22,3 C 61,0%
15.10.2019 00:35:12 22,3 C 61,0%
15.10.2019 00:28:12 22,3 C 61,0%
15.10.2019 00:21:10 22,3 C 61,0%
15.10.2019 00:14:08 22,3 C 61,0%
15.10.2019 00:07:05 22,3 C 61,0%
15.10.2019 00:00:03 22,4 C 60,0%